Lapse_Rate
3.6 3.5 3.8 4.1 3.9 3.8 3.9 4.3 4.4 4.5 5.2 5.6 5.6 5.7 6.2 6.5 7.3 6.8 7.5 7.8 7.2 7.4 7.2 7.3 7.7 7.7 6.3 4.9 6.1 5.7 5.5 5.7 5.5 4.1 4.8 5.7 6.3 5.8 6.5 6.0 5.7 6.5 6.5 5.6 4.9 3.6 4.3
3.8 3.7 3.8 3.9 4.0 4.0 3.5 3.8 4.1 4.1 4.4 5.0 5.1 5.2 5.5 5.6 6.1 6.4 6.6 6.8 7.6 7.4 7.6 6.9 6.5 6.4 5.3 6.5 5.8 5.7 4.6 5.5 4.3 4.5 4.6 6.2 6.0 6.4 5.5 6.0 6.3 5.6 5.4 5.7 4.6 4.6 4.1
3.8 4.0 3.9 3.8 3.7 3.8 3.7 3.3 3.3 3.7 3.9 4.1 4.6 4.6 4.3 5.1 5.1 5.5 6.3 6.6 6.8 6.6 6.9 7.3 6.9 6.8 6.0 5.6 6.7 5.8 6.5 5.7 5.0 4.3 6.6 6.0 6.0 6.7 4.9 6.4 4.3 5.0 6.5 6.4 5.6 5.4 6.3
3.7 3.8 3.9 4.0 3.8 3.6 3.5 3.3 3.1 3.0 3.3 3.5 3.8 3.7 3.7 4.1 4.4 4.6 4.6 5.4 5.9 6.0 5.9 6.5 6.6 6.4 5.9 7.6 6.3 7.1 6.8 7.1 5.8 6.0 5.0 4.0 5.1 6.2 5.6 4.2 5.7 6.5 6.5 6.5 6.5 6.0 6.2
3.5 3.7 3.7 4.0 4.0 3.8 3.4 3.1 3.0 2.9 2.6 2.6 3.0 3.3 3.3 3.0 3.5 4.0 4.1 5.0 6.3 5.7 5.9 6.1 6.2 6.2 6.4 7.1 7.1 7.2 6.6 6.3 6.7 6.4 4.2 6.3 5.7 5.1 5.1 6.5 6.5 6.5 6.5 6.5 6.5 6.2 6.5
2.8 2.9 3.1 3.5 3.8 3.8 3.6 3.2 2.8 2.6 2.7 1.9 2.0 2.3 2.7 2.6 2.8 3.4 3.7 5.0 6.0 5.2 5.6 5.8 6.0 5.4 6.8 7.2 7.6 7.0 6.2 6.0 6.9 6.9 6.5 5.7 3.0 6.5 6.5 6.5 6.5 6.5 6.5 6.5 6.5 6.5 6.5
2.2 2.3 2.7 3.0 3.3 3.5 3.5 3.3 2.8 2.6 2.2 2.1 1.6 1.2 1.7 2.2 2.5 3.0 2.6 2.6 2.5 4.4 4.1 5.6 5.9 5.7 5.7 6.5 6.6 5.9 5.6 6.7 7.0 5.6 6.5 5.0 6.5 6.5 6.5 6.5 6.5 6.5 6.5 6.5 6.5 6.5 6.5
2.2 2.3 2.3 2.4 2.7 2.9 3.1 3.1 2.8 2.3 1.9 1.8 1.9 1.5 1.4 1.7 1.9 2.5 2.1 2.6 4.2 4.1 5.6 5.1 5.2 5.4 5.7 5.0 4.9 4.8 5.0 6.0 5.7 6.5 6.5 6.5 6.5 6.5 6.5 6.5 6.5 6.5 6.5 6.5 6.5 6.5 6.5
1.9 1.9 2.0 2.1 2.2 2.3 2.6 2.7 2.3 1.7 1.3 1.3 1.7 1.8 1.5 1.8 2.2 2.0 1.6 2.8 2.7 2.9 5.0 5.4 5.7 5.6 5.7 5.0 5.4 5.2 5.1 5.9 6.3 6.5 6.5 6.5 6.5 6.4 6.5 6.5 6.5 6.5 6.5 6.5 6.5 6.5 6.5
1.7 1.7 1.6 1.7 1.8 1.8 1.8 2.1 1.8 1.2 0.7 0.7 1.2 1.9 2.1 2.4 4.1 2.5 2.4 2.9 2.6 2.2 6.5 6.4 6.0 6.0 6.3 6.2 5.9 6.2 5.1 5.9 6.3 6.5 6.5 6.5 6.3 6.5 6.5 6.5 6.5 6.5 6.5 6.5 6.5 6.5 6.5
1.5 1.5 1.4 1.4 1.4 1.4 1.3 1.2 1.6 0.9 0.5 0.7 1.3 1.9 2.4 2.8 2.3 3.1 2.7 2.4 2.7 2.8 6.5 6.4 5.9 6.7 5.8 5.8 6.4 6.0 5.5 4.7 6.5 6.5 6.5 6.5 6.5 6.5 6.5 6.5 6.5 6.5 6.5 6.5 6.5 6.5 6.5
1.1 1.3 1.2 1.1 1.1 1.1 0.9 0.8 0.7 0.6 0.5 0.6 0.9 1.7 3.1 2.5 1.1 2.4 2.5 2.0 2.6 6.5 6.5 6.5 6.0 6.4 6.4 5.6 6.0 5.8 5.0 5.2 6.3 6.5 6.5 6.5 6.3 6.4 6.5 6.5 6.5 6.5 6.5 6.5 6.5 6.5 6.5
1.0 1.0 1.1 1.0 1.0 0.7 0.7 0.7 0.5 0.3 0.1 0.2 0.9 1.7 2.6 2.7 3.1 2.4 1.8 2.3 6.5 6.5 6.5 6.5 6.5 6.5 6.5 6.5 6.5 6.4 6.5 6.5 6.5 6.5 6.5 6.5 6.5 6.4 6.2 6.5 6.5 6.5 6.5 6.5 6.5 6.5 6.5
1.1 1.1 0.9 0.9 0.9 0.8 0.6 0.3 0.1 -0.1 -0.5 -0.5 0.4 1.3 1.7 1.9 1.9 1.9 1.3 5.9 6.5 6.5 6.5 6.5 6.5 6.5 6.5 6.5 6.5 6.5 6.5 6.5 6.5 6.5 6.5 6.5 6.5 6.5 6.4 6.5 6.5 6.5 6.5 6.5 6.5 6.5 6.5
1.3 1.2 1.2 1.1 1.0 0.8 0.6 0.3 0.1 -0.7 -1.1 -0.9 -0.0 -0.7 0.5 0.8 2.3 1.0 2.0 6.5 6.5 6.5 6.5 6.5 6.5 6.5 6.5 6.5 6.5 6.5 6.5 6.5 6.5 6.5 6.5 6.5 6.5 6.5 6.5 6.5 6.5 6.5 6.5 6.5 6.5 6.5 6.5
1.5 1.3 1.3 1.3 1.2 0.9 0.7 0.4 0.1 -0.5 -1.2 -1.1 -1.3 0.0 1.6 1.7 1.7 1.2 5.3 6.5 6.5 6.5 6.5 6.5 6.5 6.5 6.5 6.5 6.5 6.5 6.5 6.5 6.5 6.4 6.3 6.5 6.5 6.5 6.5 6.5 6.5 6.5 6.5 6.5 6.5 6.5 6.5
1.8 1.6 1.4 1.4 1.0 0.7 0.7 0.5 0.1 -0.4 -1.0 -1.1 -1.3 1.2 1.7 1.0 0.4 1.0 6.5 6.5 6.5 6.5 6.4 6.5 6.5 6.5 6.5 6.5 6.5 6.5 6.5 6.5 6.5 6.5 5.9 6.5 6.5 6.5 6.5 6.5 6.5 6.5 6.5 6.5 6.5 6.5 6.5
2.4 2.0 1.7 1.5 1.0 0.8 0.7 0.6 0.3 -0.5 -1.1 -2.6 -1.1 4.7 0.6 -0.3 3.1 4.4 6.5 6.5 6.2 6.4 6.3 6.5 6.5 6.5 6.5 6.5 6.5 6.5 6.5 6.5 5.4 6.1 6.5 6.5 6.5 6.5 6.5 6.5 6.5 6.5 6.5 6.5 6.5 6.5 6.5
3.1 2.5 2.0 1.6 1.3 1.0 0.8 0.7 0.6 0.2 -0.4 -2.9 0.7 0.8 0.0 0.7 6.5 6.5 6.4 6.5 6.3 6.5 6.5 6.5 6.5 6.5 6.5 6.5 6.5 6.5 6.5 6.4 5.6 6.4 6.5 6.5 6.5 6.5 6.5 6.5 6.5 6.5 6.5 6.5 6.5 6.5 6.5
3.6 3.2 2.6 2.1 1.7 1.5 1.1 0.6 0.5 0.5 -0.1 -1.7 0.9 6.5 1.2 -0.1 2.3 6.3 6.5 6.5 6.5 6.2 6.4 6.4 6.5 6.4 6.5 6.5 6.5 6.5 6.5 6.5 6.2 6.3 6.5 6.0 6.5 6.5 6.5 6.5 6.5 6.5 6.5 6.5 6.5 6.5 6.5
4.2 3.6 3.2 2.7 2.2 1.8 1.4 1.1 0.7 0.4 -0.3 -0.4 -0.5 3.9 4.2 6.5 5.7 6.1 6.4 6.5 6.5 6.5 6.4 6.3 6.5 6.5 6.5 6.5 6.5 6.5 6.5 6.5 6.4 6.4 6.3 6.6 6.5 6.5 6.5 6.5 6.5 6.5 6.5 6.5 6.5 6.5 6.5
5.1 4.6 4.6 4.5 3.3 2.5 1.9 1.5 1.2 0.9 0.1 -1.2 2.1 3.3 2.4 4.1 4.9 6.4 6.5 6.5 6.5 6.5 6.5 6.5 6.5 6.5 6.5 6.5 6.5 6.5 6.5 6.5 6.5 6.4 6.5 6.4 6.5 6.5 6.5 6.5 6.5 6.5 6.5 6.5 6.5 6.5 6.5
5.9 5.5 5.2 5.2 5.3 4.4 3.1 2.1 1.8 1.7 1.4 -0.3 -0.1 1.3 3.3 4.7 5.9 6.5 6.5 6.5 6.5 6.3 6.4 6.3 6.4 6.5 6.5 6.5 6.0 5.9 5.4 5.2 6.0 6.5 6.5 6.5 6.5 6.5 6.5 6.5 6.5 6.5 6.5 6.5 6.5 6.5 6.5
6.8 7.0 6.2 6.2 6.3 6.4 6.0 4.5 3.0 2.9 2.0 -0.6 -0.3 0.4 3.6 6.5 6.4 6.5 6.3 6.2 6.5 6.2 6.4 6.0 6.0 6.4 6.1 4.9 4.8 5.7 5.8 6.0 6.2 6.1 5.5 6.5 6.5 6.5 6.5 6.5 6.5 6.5 6.5 6.5 6.5 6.5 6.5
6.1 7.1 7.8 7.3 6.7 6.6 6.9 6.6 5.2 4.7 4.0 1.1 -0.1 1.4 2.6 6.5 5.5 6.2 6.3 6.3 6.2 6.0 6.2 6.1 5.5 4.7 3.9 5.5 6.5 6.5 6.5 6.5 6.5 6.5 6.5 6.2 6.5 6.5 6.5 6.5 6.5 6.5 6.5 6.5 6.5 6.5 6.5
5.7 5.7 6.0 7.0 7.3 7.3 7.4 7.2 6.5 6.1 5.4 2.1 1.1 0.3 1.9 4.3 6.0 5.9 5.7 5.9 6.5 6.5 6.3 6.1 5.3 4.5 5.3 6.0 6.5 6.5 6.5 6.5 6.5 6.5 6.2 6.5 6.5 6.5 6.5 6.5 6.5 6.5 6.5 6.2 6.4 6.5 5.9
5.4 5.6 5.5 6.1 6.9 7.2 7.4 6.9 6.6 6.4 6.2 4.7 3.2 2.2 2.1 3.9 3.1 5.5 5.2 5.8 4.1 5.3 6.5 5.8 5.7 5.8 5.3 6.5 6.5 6.5 6.5 6.5 6.5 6.5 6.5 6.5 6.5 6.5 6.5 6.5 6.5 6.5 6.2 5.7 6.5 6.5 6.2
5.0 5.3 5.3 5.6 6.2 6.9 7.5 7.2 6.5 6.3 5.9 6.2 5.2 3.8 3.9 3.5 2.9 5.3 5.9 5.2 4.5 4.1 6.5 5.3 5.8 5.6 6.0 6.5 6.5 6.5 6.5 6.5 6.5 6.5 6.5 6.5 6.5 6.5 6.5 6.5 6.5 5.6 6.3 6.5 6.1 5.0 5.6
4.5 5.1 5.0 5.0 5.9 6.7 7.1 6.9 6.2 5.9 5.9 5.7 5.5 4.8 4.8 5.6 4.3 4.2 5.2 5.5 6.2 5.7 3.8 3.5 5.1 4.8 4.4 6.5 6.5 6.5 6.5 6.5 6.5 6.5 6.5 6.5 6.5 6.5 6.5 6.5 5.6 5.3 5.8 5.3 4.0 4.9 5.4
Wind_Speed
16 16 16 16 15 16 16 17 17 17 17 17 16 15 18 18 20 22 19 21 18 20 20 18 16 3 4 6 1 3 5 2 14 7 5 4 5 3 8 6 4 4 1 5 6 9 8
18 17 17 17 17 16 16 17 17 17 16 15 16 16 17 19 19 16 19 20 17 14 1 6 4 2 5 8 4 5 5 8 9 5 7 5 4 1 4 4 4 5 6 4 8 7 7
18 18 18 18 18 17 16 16 18 17 16 15 15 15 17 16 18 18 17 16 16 16 7 5 6 1 13 4 2 4 5 7 5 7 12 2 4 2 3 6 6 5 6 7 9 7 4
18 18 19 19 19 19 18 17 17 18 17 16 16 16 16 16 18 18 19 17 17 11 10 7 8 3 7 3 1 2 5 8 14 17 8 9 6 3 1 6 5 5 5 4 5 6 2
19 19 20 20 20 20 20 19 18 17 18 16 15 17 17 18 18 20 21 22 22 15 6 8 3 4 6 5 3 3 5 5 5 5 6 4 4 4 4 6 5 6 4 4 1 4 1
19 20 21 21 21 21 21 20 19 18 17 18 16 15 17 18 18 17 21 18 14 8 4 1 2 5 6 2 5 5 6 6 3 6 1 3 5 4 4 4 5 5 6 3 4 1 1
18 19 20 21 22 23 22 22 20 18 17 17 19 15 16 16 18 19 9 4 6 6 8 5 2 1 2 1 2 6 5 3 3 3 4 6 8 3 3 2 4 7 6 6 1 2 2
17 18 20 22 22 23 24 24 21 20 18 16 16 17 14 15 15 13 4 5 3 2 4 4 2 3 3 0 8 11 5 0 5 5 1 8 5 3 6 2 4 5 9 3 2 1 1
18 19 20 23 23 25 25 25 23 20 19 16 14 14 15 14 12 5 4 2 1 1 4 7 4 3 4 6 3 8 4 2 7 8 8 7 2 5 4 8 11 5 7 4 4 2 3
18 19 21 23 24 25 26 26 25 22 19 17 13 12 14 15 4 1 3 2 2 1 5 10 9 6 6 2 6 2 5 3 6 5 5 6 6 5 7 7 5 5 4 4 6 3 3
18 20 22 23 25 26 26 27 27 24 20 16 12 12 14 6 3 3 2 4 1 3 5 10 8 5 7 5 2 9 5 8 5 4 4 1 6 7 10 4 3 4 3 5 4 5 4
18 20 22 23 25 26 26 27 28 25 21 15 12 12 8 4 3 0 2 3 3 6 2 7 5 6 6 7 5 6 7 7 2 8 9 3 2 4 1 2 5 2 5 8 5 4 3
18 19 21 23 25 26 27 27 27 25 22 15 11 11 5 2 1 1 3 3 5 6 4 5 3 4 3 6 6 5 4 5 3 5 5 6 5 5 4 5 7 7 6 4 4 4 5
17 18 20 23 25 26 27 28 28 26 22 14 9 8 5 2 1 1 3 5 9 5 4 3 3 4 3 3 3 5 3 4 6 5 4 4 5 6 7 4 2 4 4 5 5 3 4
16 17 19 22 24 26 28 28 29 27 22 14 5 2 2 3 1 2 5 6 6 6 3 4 4 4 5 3 2 4 3 2 2 4 4 5 2 2 2 2 2 1 3 3 6 2 3
15 17 18 20 23 26 27 29 30 28 26 6 2 2 2 1 1 4 5 4 2 2 1 2 3 1 1 5 4 3 4 2 2 2 1 4 4 2 1 1 2 2 4 4 3 2 3
14 15 17 18 21 24 27 29 31 30 28 1 3 3 2 2 3 5 4 1 1 1 1 2 1 1 3 2 3 3 4 4 5 5 5 4 3 3 3 2 6 1 1 3 4 4 4
13 14 15 18 20 22 24 27 29 29 26 5 2 3 1 2 4 2 2 2 1 2 2 2 1 1 2 2 3 3 1 3 7 4 2 3 4 3 3 3 2 2 4 5 4 5 3
14 13 14 17 20 22 24 27 28 28 20 2 2 1 1 3 3 2 1 2 2 2 2 4 3 2 2 1 2 2 3 2 3 3 2 2 2 2 6 5 4 2 3 3 3 2 5
13 13 14 15 17 20 23 26 29 31 26 3 3 3 4 4 1 4 3 2 2 1 1 2 2 3 3 2 3 3 2 1 2 2 3 2 3 4 5 2 2 3 4 5 5 3 4
13 13 12 12 15 17 21 25 28 33 23 3 3 1 2 2 3 3 3 0 2 3 1 2 2 1 1 1 1 0 1 3 2 2 2 3 2 2 5 6 3 6 7 7 9 6 7
13 12 12 12 13 15 18 21 26 32 16 4 2 3 2 1 0 3 2 1 1 1 2 2 1 4 2 1 1 4 3 3 4 2 1 2 2 3 5 3 1 5 9 11 10 8 10
14 11 11 11 13 14 14 17 21 27 12 3 3 3 2 2 2 4 4 5 6 5 0 2 2 2 4 2 3 3 3 0 2 6 4 3 3 2 4 4 7 8 9 13 5 6 10
17 14 13 12 12 13 13 13 14 18 12 2 1 2 3 3 1 3 4 3 6 5 6 6 5 3 2 3 3 1 2 2 2 3 2 4 4 2 3 3 1 6 2 4 10 7 9
18 18 15 13 12 10 12 10 8 10 12 3 1 2 2 2 2 2 2 3 1 1 2 2 1 3 4 3 2 3 3 3 2 3 1 2 4 1 1 2 8 1 1 2 3 2 3
20 20 18 16 15 12 10 6 4 4 6 3 1 2 2 2 4 1 2 2 3 3 3 2 2 1 2 2 2 5 4 4 2 1 4 3 3 3 2 2 4 2 2 0 1 4 6
21 22 21 20 18 15 12 7 5 4 3 2 0 2 3 1 3 1 2 4 4 2 2 1 3 1 4 1 1 3 4 5 5 6 5 3 2 6 4 3 8 6 3 3 2 3 2
23 23 23 22 21 18 14 10 8 5 8 2 1 3 3 2 4 1 1 2 1 1 3 3 3 1 2 1 1 3 2 4 1 3 5 6 6 4 3 4 8 5 1 3 4 3 3
20 24 24 23 23 20 16 11 8 6 8 6 1 2 2 2 4 2 3 3 3 3 4 2 3 3 4 3 1 1 2 2 1 3 2 2 5 4 7 6 3 3 3 4 5 5 4
Wind_Direction
32 27 21 17 12 8 0 357 359 4 7 4 357 3 355 358 1 8 15 34 44 59 69 85 122 162 49 53 132 273 325 139 56 33 12 328 129 157 137 128 104 85 342 30 349 62 64
33 27 19 14 10 9 3 355 355 357 4 5 351 354 351 348 345 347 350 353 2 3 21 158 229 297 96 81 248 248 268 130 73 57 257 237 162 302 104 114 93 128 81 27 10 28 45
32 27 22 16 11 7 4 357 351 352 355 0 346 352 341 347 335 338 341 341 338 338 21 98 176 212 77 155 186 194 205 114 94 211 248 240 184 163 137 90 145 125 73 30 13 357 66
29 26 22 19 13 8 4 359 351 348 348 350 348 345 338 340 332 332 330 327 328 330 310 301 299 28 82 302 289 192 164 152 214 228 235 257 269 135 235 131 56 83 55 94 312 355 22
27 25 21 18 15 11 5 1 352 347 342 343 344 338 339 338 336 334 332 329 324 333 275 293 300 99 59 31 348 226 187 242 215 224 199 240 99 130 46 95 53 24 125 101 41 16 80
26 23 20 17 14 11 7 360 354 347 342 338 337 337 331 336 334 334 327 317 304 346 348 274 328 49 98 98 237 252 195 214 348 251 27 81 66 81 43 72 166 158 105 82 147 326 45
21 20 18 14 12 10 6 1 354 348 342 338 331 335 329 333 335 336 351 14 16 353 28 81 259 44 319 234 149 340 357 39 218 65 63 22 68 58 316 320 157 133 111 115 63 303 141
14 12 10 7 7 6 4 1 355 348 342 336 330 328 333 330 336 343 60 76 162 224 354 5 82 15 320 318 41 358 352 129 69 68 57 49 68 306 297 243 156 104 116 88 59 344 118
10 8 5 4 4 2 359 358 358 351 342 334 329 328 330 333 336 39 78 110 196 117 68 352 340 5 324 25 26 333 16 19 67 63 54 87 324 343 59 43 100 36 119 156 144 122 32
3 3 2 2 2 359 355 354 356 357 347 334 328 328 331 332 59 321 63 313 334 49 69 331 344 359 2 359 32 324 15 54 44 96 64 68 334 59 46 69 21 76 328 110 108 89 177
358 360 360 358 357 355 355 353 357 359 354 343 333 330 339 16 145 74 295 320 306 72 63 305 318 295 343 68 315 346 347 34 57 25 92 331 14 35 55 351 323 135 77 78 91 86 64
353 356 356 356 354 353 353 353 354 359 358 351 345 338 353 20 50 240 340 350 40 44 325 334 324 342 6 14 8 339 23 49 143 62 50 78 27 53 90 1 41 118 63 43 54 66 27
348 350 351 352 352 351 351 352 354 358 358 354 347 352 23 60 157 313 55 51 40 81 296 317 331 355 56 358 12 33 35 23 83 78 8 5 14 336 21 56 16 55 52 18 10 9 218
348 347 347 348 349 349 351 350 352 355 354 351 343 344 29 61 21 46 60 53 66 248 260 300 333 336 70 10 18 11 46 28 20 68 93 109 347 5 337 85 133 47 121 145 184 184 253
347 345 344 345 347 349 348 349 350 353 350 343 335 18 26 309 359 63 75 52 176 201 287 5 335 19 343 351 94 72 66 76 2 17 121 130 21 315 42 51 91 235 54 160 102 70 45
344 345 344 344 346 345 347 347 346 351 350 346 91 72 322 296 78 60 71 131 177 225 5 40 55 46 75 336 11 56 20 345 11 72 349 190 100 233 241 150 24 83 159 66 8 139 271
335 340 343 343 344 343 344 346 346 350 352 106 63 60 277 129 63 50 93 178 172 262 110 112 129 62 80 28 20 29 340 335 3 349 42 39 82 301 28 216 181 110 139 75 110 148 170
325 334 339 341 342 344 344 345 346 351 353 56 70 44 284 94 48 38 64 8 334 349 343 326 346 88 92 28 58 79 99 337 346 357 39 25 122 155 191 262 180 194 201 151 126 226 237
319 326 334 340 343 345 346 346 345 348 1 339 83 233 311 107 80 28 307 57 52 12 5 342 345 16 9 102 113 141 162 214 79 65 109 358 4 46 351 353 358 241 216 175 131 100 201
310 319 327 338 343 347 348 348 346 348 352 103 65 29 341 44 100 115 115 47 35 18 316 327 303 5 7 354 16 158 146 198 38 88 159 126 133 164 190 210 132 233 231 209 161 147 196
296 308 316 329 340 346 351 352 352 352 356 97 32 242 201 342 10 89 95 42 96 359 356 355 330 306 32 216 5 348 72 11 10 23 50 97 203 175 240 242 231 226 229 213 211 203 202
282 292 305 316 329 339 347 355 0 359 7 69 109 128 23 160 216 112 20 157 138 110 94 350 6 338 331 275 306 226 167 180 243 2 85 32 304 42 305 323 341 272 249 229 231 236 254
270 276 287 302 316 326 337 353 3 12 30 66 339 350 70 264 158 123 200 179 178 162 122 127 136 16 343 13 317 310 318 63 180 160 192 138 126 67 270 353 323 285 239 215 201 205 217
267 263 272 283 301 314 323 340 359 15 42 117 150 112 47 290 208 209 187 187 180 190 163 171 148 158 185 312 294 241 249 245 217 56 150 144 134 143 259 360 291 250 240 191 202 240 234
259 265 263 267 283 302 313 322 342 4 18 81 110 76 111 252 254 310 180 181 136 314 231 226 261 173 161 117 75 17 348 353 28 38 20 170 136 279 201 245 296 348 45 148 175 258 300
250 254 257 262 270 282 298 303 308 337 2 82 80 134 95 109 250 285 170 192 186 181 338 303 344 296 58 69 124 156 194 200 227 305 18 38 40 143 141 196 256 239 327 2 215 291 346
246 246 248 252 259 264 277 273 265 277 261 106 224 141 105 151 277 98 200 193 160 143 169 209 165 51 19 22 187 184 220 164 193 183 169 152 168 200 211 273 290 259 284 328 111 243 321
249 245 244 248 251 254 260 250 245 261 216 165 223 193 125 164 277 272 249 141 28 74 162 197 66 20 74 148 231 266 205 230 171 163 181 173 158 194 151 193 262 189 63 182 204 225 224
279 246 244 242 246 247 250 244 233 234 208 187 231 193 152 179 235 259 254 250 219 202 161 222 189 158 181 119 210 92 288 341 189 256 46 264 201 184 191 216 242 239 232 196 176 221 233